Change the Weather History Date:

Friday, January 11, 2013

  Actual Average Record
Temperature  
Mean Temperature 21 °F 29 °F  
Max Temperature 24 °F 37 °F 56 °F (2000)
Min Temperature 17 °F 22 °F -9 °F (1963)
Degree Days  
Heating Degree Days 44 36  
Month to date heating degree days 496 396  
Since 1 July heating degree days 2311 2690  
Cooling Degree Days 0 0  
Month to date cooling degree days 0 0  
Year to date cooling degree days 0 0  
Moisture  
Dew Point 17 °F    
Average Humidity 81    
Maximum Humidity 96    
Minimum Humidity 65    
Precipitation  
Precipitation 0.09 in 0.05 in 0.65 in (1927)
Month to date precipitation 0.52 0.47  
Year to date precipitation 0.52 0.47  
Snow  
Snow 2.60 in 0.40 in 7.50 in (1993)
Month to date snowfall 9.1 4.8  
Since 1 July snowfall 37.7 27.0  
Snow Depth 6.00 in    
Sea Level Pressure  
Sea Level Pressure 29.85 in    
Wind  
Wind Speed 9 mph (WSW)    
Max Wind Speed 21 mph    
Max Gust Speed 23 mph    
Visibility 4 miles    
Events Snow    
T = Trace of Precipitation, MM = Missing Value Source: NWS Daily Summary

Daily Weather History Graph

Daily Weather History Graph

Search for Another Location

Airport or City:

Trip Planner

Search our weather history database for the weather conditions in past years. The results will help you decide how hot, cold, wet, or windy it might be!

Date:

Astronomy

Jan. 11, 2013 Rise Set
Actual Time 7:51 AM MST 5:21 PM MST
Civil Twilight 7:20 AM MST 5:51 PM MST
Nautical Twilight 6:46 AM MST 6:25 PM MST
Astronomical Twilight 6:13 AM MST 6:58 PM MST
Moon 7:27 AM MST (1/11) 5:43 PM MST (1/11)
Length of Visible Light 10h 30m
Length of Day
9h 29m
Waning Crescent, 0% of the Moon is Illuminated
Jan 11
Waning Crescent
Jan 11
New
Jan 18
First Quarter
Jan 26
Full
Feb 3
Last Quarter

Hourly Weather History & Observations

Time (MST) Temp. Windchill Dew Point Humidity Pressure Visibility Wind Dir Wind Speed Gust Speed Precip Events Conditions
12:53 AM 23.0 °F 13.9 °F 21.0 °F 92% 29.68 in 1.0 mi WNW 8.1 mph - 0.02 in Snow Light Snow
1:37 AM 21.9 °F 13.4 °F 19.0 °F 89% 29.64 in 2.0 mi NW 6.9 mph - 0.01 in Snow Light Snow
1:53 AM 23.0 °F 13.9 °F 18.0 °F 81% 29.67 in 2.0 mi WNW 8.1 mph - 0.01 in Snow Light Snow
2:53 AM 23.0 °F 9.2 °F 15.1 °F 72% 29.70 in 2.5 mi WNW 17.3 mph - 0.00 in Snow Light Snow
3:18 AM 21.9 °F 8.2 °F 16.0 °F 78% 29.66 in 2.5 mi NW 16.1 mph - 0.00 in Snow Light Snow
3:53 AM 21.9 °F 9.2 °F 17.1 °F 82% 29.71 in 2.5 mi WNW 13.8 mph 21.9 mph 0.00 in Snow Light Snow
4:53 AM 21.9 °F 9.2 °F 16.0 °F 78% 29.71 in 2.5 mi NW 13.8 mph - 0.00 in Snow Light Snow
5:27 AM 23.0 °F 13.1 °F 15.1 °F 72% 29.66 in 3.0 mi WNW 9.2 mph - 0.00 in Snow Light Snow
5:53 AM 23.0 °F 14.7 °F 14.0 °F 68% 29.73 in 3.0 mi West 6.9 mph - 0.00 in Snow Light Snow
6:53 AM 23.0 °F 10.1 °F 12.0 °F 63% 29.76 in 8.0 mi West 15.0 mph - 0.00 in   Overcast
7:53 AM 23.0 °F 11.7 °F 12.9 °F 65% 29.79 in 10.0 mi SW 11.5 mph - N/A   Mostly Cloudy
8:24 AM 23.0 °F 13.1 °F 15.1 °F 72% 29.73 in 7.0 mi West 9.2 mph - 0.00 in Snow Light Snow
8:40 AM 23.0 °F 10.1 °F 16.0 °F 74% 29.74 in 1.5 mi West 15.0 mph - 0.00 in Snow Light Snow
8:44 AM 23.0 °F 11.7 °F 16.0 °F 74% 29.74 in 4.0 mi West 11.5 mph - 0.01 in Snow Light Snow
8:53 AM 23.0 °F 11.1 °F 15.1 °F 72% 29.82 in 8.0 mi West 12.7 mph - 0.01 in Snow Light Snow
9:09 AM 23.0 °F 11.7 °F 15.1 °F 72% 29.75 in 10.0 mi West 11.5 mph - 0.00 in Snow Light Snow
9:53 AM 24.1 °F 13.7 °F 15.1 °F 69% 29.83 in 10.0 mi WSW 10.4 mph - 0.00 in Snow Light Snow
10:53 AM 23.0 °F 14.7 °F 18.0 °F 81% 29.86 in 9.0 mi South 6.9 mph - 0.00 in Snow Light Snow
11:53 AM 24.1 °F 19.7 °F 17.1 °F 75% 29.86 in 8.0 mi Variable 3.5 mph - 0.00 in Snow Light Snow
12:11 PM 24.1 °F 15.2 °F 16.0 °F 71% 29.79 in 6.0 mi WSW 8.1 mph - 0.00 in Snow Light Snow
12:21 PM 23.0 °F 13.1 °F 17.1 °F 78% 29.79 in 7.0 mi South 9.2 mph - 0.00 in Snow Light Snow
12:29 PM 23.0 °F 12.4 °F 17.6 °F 80% 29.79 in 2.5 mi South 10.4 mph - N/A Snow Light Snow
12:35 PM 23.0 °F 13.9 °F 19.0 °F 85% 29.79 in 1.0 mi South 8.1 mph - 0.00 in Snow Light Snow
12:46 PM 23.0 °F 14.7 °F 19.0 °F 85% 29.80 in 1.0 mi SSW 6.9 mph - 0.00 in Snow Light Snow
12:53 PM 23.0 °F 15.8 °F 19.9 °F 88% 29.88 in 1.0 mi SSW 5.8 mph - 0.01 in Snow Light Snow
12:57 PM 23.0 °F 14.7 °F 19.0 °F 85% 29.80 in 2.0 mi SW 6.9 mph - 0.00 in Snow Light Snow
1:27 PM 23.0 °F 15.8 °F 18.0 °F 81% 29.80 in 5.0 mi SW 5.8 mph - 0.00 in Snow Light Snow
1:53 PM 23.0 °F 15.8 °F 18.0 °F 81% 29.89 in 10.0 mi South 5.8 mph - 0.00 in Snow Light Snow
2:09 PM 23.0 °F 18.4 °F 18.0 °F 81% 29.81 in 2.0 mi South 3.5 mph - 0.00 in Snow Light Snow
2:18 PM 23.0 °F 14.7 °F 18.0 °F 81% 29.82 in 1.5 mi South 6.9 mph - 0.00 in Snow Light Snow
2:43 PM 23.0 °F 15.8 °F 18.0 °F 81% 29.83 in 2.5 mi SW 5.8 mph - 0.01 in Snow Light Snow
2:53 PM 23.0 °F 13.1 °F 19.0 °F 85% 29.92 in 3.0 mi SW 9.2 mph - 0.01 in Snow Light Snow
3:24 PM 23.0 °F 12.4 °F 17.1 °F 78% 29.85 in 3.0 mi West 10.4 mph - 0.00 in Snow Light Snow
3:41 PM 23.0 °F 12.4 °F 18.0 °F 81% 29.85 in 1.0 mi West 10.4 mph - 0.00 in Snow Light Snow
3:53 PM 23.0 °F 15.8 °F 19.0 °F 85% 29.94 in 1.0 mi West 5.8 mph - 0.00 in Snow Light Snow
4:33 PM 23.0 °F 14.7 °F 19.0 °F 85% 29.87 in 2.5 mi West 6.9 mph - 0.00 in Snow Light Snow
4:40 PM 23.0 °F 14.7 °F 19.0 °F 85% 29.87 in 3.0 mi West 6.9 mph - 0.00 in Snow Light Snow
4:53 PM 21.9 °F 11.0 °F 18.0 °F 85% 29.96 in 3.0 mi WSW 10.4 mph - 0.01 in Snow Light Snow
5:28 PM 23.0 °F 12.4 °F 17.1 °F 78% 29.88 in 2.0 mi West 10.4 mph - 0.00 in Snow Light Snow
5:40 PM 23.0 °F 10.1 °F 18.0 °F 81% 29.88 in 1.2 mi West 15.0 mph - 0.00 in Snow Light Snow
5:53 PM 21.9 °F 11.0 °F 19.0 °F 89% 29.97 in 1.0 mi West 10.4 mph - 0.01 in Snow Light Snow
6:09 PM 21.9 °F 10.4 °F 19.0 °F 89% 29.89 in 0.8 mi West 11.5 mph - 0.00 in Snow Light Snow
6:27 PM 21.9 °F 9.2 °F 19.0 °F 89% 29.90 in 1.0 mi West 13.8 mph - 0.01 in Snow Light Snow
6:49 PM 21.2 °F 9.5 °F 17.6 °F 86% 29.91 in 2.5 mi West 11.5 mph - 0.01 in Snow Light Snow
6:53 PM 21.9 °F 10.4 °F 19.0 °F 89% 29.99 in 2.5 mi West 11.5 mph - 0.01 in Snow Light Snow
7:53 PM 21.9 °F 9.8 °F 19.0 °F 89% 30.01 in 2.5 mi West 12.7 mph - 0.00 in Snow Light Snow
8:53 PM 21.0 °F 9.9 °F 17.1 °F 85% 30.03 in 3.0 mi NW 10.4 mph - 0.00 in Snow Light Snow
9:15 PM 21.0 °F 9.3 °F 18.0 °F 88% 29.94 in 2.0 mi NW 11.5 mph - 0.00 in Snow Light Snow
9:39 PM 19.9 °F 7.9 °F 17.1 °F 89% 29.94 in 3.0 mi NNW 11.5 mph - 0.00 in Snow Light Snow
9:53 PM 18.0 °F 8.7 °F 15.1 °F 88% 30.04 in 3.0 mi North 6.9 mph - 0.00 in   Mostly Cloudy
10:30 PM 18.0 °F - 15.1 °F 88% 29.96 in 6.0 mi Calm Calm - 0.00 in Snow Light Snow
10:53 PM 19.0 °F - 16.0 °F 88% 30.06 in 4.0 mi Calm Calm - 0.00 in Snow Light Snow
11:17 PM 19.0 °F 13.9 °F 16.0 °F 88% 29.96 in 10.0 mi SSE 3.5 mph - 0.00 in   Mostly Cloudy
11:53 PM 18.0 °F 11.1 °F 16.0 °F 92% 30.06 in 10.0 mi South 4.6 mph - 0.00 in   Overcast